+ View the NASA Portal
+ Center for Near-Earth Object Studies
IMPORTANT:
The SSD Announcement email list is now available. Major changes are coming in the near future, including possible hostname and/or URL changes. To be notified of such changes, subscribe to this email list.
Please visit
this page
for more details.
Don't show this message again
JPL Small-Body Database Browser
Search:
[
help
]
351653 (2005 YL151)
Classification:
Main-belt Asteroid
SPK-ID:
2351653
[
Ephemeris
|
Orbit Diagram
|
Orbital Elements
|
Mission Design
|
Physical Parameters
|
Discovery Circumstances
]
[ show orbit diagram ]
Orbital Elements at Epoch 2458600.5 (2019-Apr-27.0) TDB
Reference:
JPL 18
(heliocentric ecliptic J2000)
Element
Value
Uncertainty (1-sigma)
Units
e
.1706823818464034
6.0982e-08
a
2.385211482917736
2.0804e-08
au
q
1.978097905805945
1.38e-07
au
i
5.758815552280248
6.4411e-06
deg
node
86.5204385916139
5.3553e-05
deg
peri
186.4452117813488
5.6832e-05
deg
M
74.67318527598192
1.7048e-05
deg
t
p
2458321.405717035363
(2018-Jul-21.90571704)
6.4515e-05
TDB
period
1345.515682717047
3.68
1.7604e-05
4.82e-08
d
yr
n
.267555409887932
3.5005e-09
deg/d
Q
2.792325060029528
2.4355e-08
au
Orbit Determination Parameters
# obs. used (total)
204
data-arc span
6582 days (18.02 yr)
first obs. used
2001-11-16
last obs. used
2019-11-24
planetary ephem.
DE431
SB-pert. ephem.
SB431-N16
condition code
0
norm. resid. RMS
.61469
source
ORB
producer
Otto Matic
solution date
2019-Dec-04 23:11:08
Additional Information
Earth MOID
= .961466 au
Jupiter MOID
= 2.31161 au
T_jup
= 3.509
[ show covariance matrix ]
[
Ephemeris
|
Orbit Diagram
|
Orbital Elements
|
Mission Design
|
Physical Parameters
|
Discovery Circumstances
]
Physical Parameter Table
Parameter
Symbol
Value
Units
Sigma
Reference
Notes
absolute magnitude
H
16.7
n/a
MPO455545
351653 (2005 YL151)
Discovered 2005-Dec-25 by Spacewatch at Kitt Peak
Reference:
20130127/Numbers.arc
Last Updated:
2013-01-31
[
Ephemeris
|
Orbit Diagram
|
Orbital Elements
|
Mission Design
|
Physical Parameters
|
Discovery Circumstances
]
2019-Dec-08 00:39 UT
(server date/time)
Site Manager:
Ryan S. Park
Webmaster
:
Alan B. Chamberlin